Location: Unspecified
(41.1637°N, 24.2901°E)
Time: 18:02:47
(UTC+01:00)

ISS - Pass Details

Date: 14 January 2025
Orbit: 415 x 418 km, 51.6° (Epoch: 13 January)

Event Time Altitude Azimuth Distance (km) Brightness Sun altitude
Rises 17:11:54 0° 218° (SW) 2,341 1.1 -10.1°
Reaches altitude 10° 17:14:02 10° 211° (SSW) 1,482 -0.2 -10.5°
Maximum altitude 17:17:12 43° 139° (SE) 591 -3.2 -11.1°
Enters shadow 17:19:18 19° 73° (ENE) 1,072 -2.4 -11.5°
